Retour au catalogue

STARLINK-5611

ActifCommunicationsVLEO
NORAD 55761·PAYLOAD·🇺🇸 United States

Lancé Mar 3, 2023 depuis Vandenberg Space Force Base

Loading…

Prochains Passages (prochaines 24 heures)

TLE

FraisSource: CelesTrak SupGP

Époque: Sep 14, 2026, 20:52 UTC

1 55761C 23028W   26257.86993056 -.00003011  00000+0 -25235-3 0  2570
2 55761  69.9999 107.6532 0002677 270.4804 171.3546 14.98329242    10

Suivez STARLINK-5611 en temps réel avec AllMySat

Download on the App Store